Location: Castelnau
(43.6639°N, 0.8431°W)
Time: 17:16:49
(UTC+00:00)

NOAA 12 - Pass Details

Date: 13 January 2026
Orbit: 792 x 813 km, 98.6° (Epoch: 11 February)

Event Time Altitude Azimuth Distance (km) Brightness Sun altitude
Rises 05:31:54 0° 10° (N) 3,304 7.3 -21.7°
Reaches altitude 10° 05:34:15 10° 8° (N) 2,369 6.5 -21.3°
Maximum altitude 05:39:24 64° 288° (WNW) 877 4.0 -20.4°
Drops below altitude 10° 05:44:33 10° 208° (SSW) 2,355 6.4 -19.5°
Sets 05:46:52 0° 205° (SSW) 3,282 7.1 -19.0°
